Location: Goheenville
(40.9070°N, 79.3720°W)
Time: 18:25:56
(UTC-04:00)

Daily predictions for brighter satellites

Satellite Brightness Start Highest point End
(mag) Time Altitude Azimuth Time Altitude Azimuth Time Altitude Azimuth
Cosmos 1844 4.4 19:57:08 10° SW 20:02:51 64° WNW 20:08:38 10° NNE
Cosmos 1766 3.2 20:03:29 10° S 20:07:20 75° E 20:11:14 10° N
Cosmos 1076 Rocket 4.4 20:04:31 10° NNE 20:08:09 27° ENE 20:11:47 10° SE
Lacrosse 4 Rocket 3.7 20:05:39 10° WSW 20:09:07 27° NW 20:12:37 10° N
Cosmos 1812 Rocket 3.9 20:08:08 10° SSW 20:12:32 73° W 20:16:56 10° N
Abrixas 2.3 20:10:12 10° WNW 20:13:02 69° NNE 20:15:43 11° ESE
Cosmos 1674 4.1 20:10:36 10° NNE 20:13:23 19° ENE 20:16:10 10° ESE
Tiangong 1 2.9 20:11:35 10° W 20:14:01 23° SSW 20:16:24 10° SSE
Cosmos 1818 3.7 20:12:56 10° NNW 20:18:21 60° NE 20:23:41 10° SE
Lacrosse 5 rocket 2.8 20:16:36 10° NNW 20:19:43 21° NNE 20:22:31 11° E
COSMOS 2487 3.6 20:17:05 10° N 20:20:10 26° ENE 20:22:57 12° ESE
Helios 1A 4.1 20:17:07 10° SE 20:20:33 26° ENE 20:24:02 10° NNE
Cosmos 1269 Rocket 4.5 20:17:05 10° N 20:22:06 42° ENE 20:27:05 10° SE
ISS -2.8 20:24:32 10° SSW 20:27:20 27° SE 20:29:21 15° E
Cosmos 468 4.5 20:22:30 10° NNW 20:27:44 68° ENE 20:32:57 10° SSE
In-Cosmos 22 4.0 20:23:15 10° N 20:28:36 85° E 20:33:52 10° S
Cosmos 1766 Rocket 4.3 20:25:09 10° N 20:29:16 35° ENE 20:33:21 10° SE
GP-B 3.8 20:26:05 10° SE 20:30:01 32° E 20:33:59 10° NNE
Cosmos 372 Rocket 4.2 20:25:41 10° S 20:30:29 43° ESE 20:35:21 10° NNE
Cosmos 2344 4.0 20:23:47 10° SW 20:31:25 70° NW 20:40:05 10° NNE
USA 186 2.0 20:33:16 23° E 20:33:35 24° ENE 20:35:28 10° NNE
CZ-2D R/B 3.4 20:29:58 10° SSE 20:33:44 54° ENE 20:37:33 10° N
Meteor 1-4 Rocket 2.4 20:30:28 10° S 20:33:52 59° E 20:37:18 10° NNE
USA 215 4.1 20:29:24 10° ENE 20:34:51 28° SE 20:40:15 10° S
Cosmos-2242 3.7 20:31:40 10° SSE 20:35:25 31° E 20:39:11 10° NNE
Cosmos 158 Rocket 4.3 20:31:22 10° N 20:36:19 46° ENE 20:40:55 12° SE
RESURS DK-1 4.1 20:33:55 10° NW 20:37:39 33° WSW 20:41:22 10° S
Cosmos 1805 3.2 20:33:52 10° S 20:37:45 88° E 20:41:41 10° N
Resurs 01 Rocket 1.6 20:33:24 10° SSE 20:37:49 86° ENE 20:42:16 10° NNW
Meteor 1-21 Rocket 4.4 20:32:15 10° N 20:38:02 59° ENE 20:43:51 10° SSE
FENGYUN 3A 4.2 20:37:50 10° S 20:43:10 62° W 20:48:32 10° NNW
Cosmos 2098 Rocket 4.4 20:36:21 10° S 20:43:35 73° E 20:51:09 10° N
Cosmos 1544 3.3 20:40:50 10° SSW 20:44:27 74° W 20:48:08 10° N
Cosmos 1605 Rocket 4.2 20:39:15 10° S 20:45:32 78° W 20:51:56 10° N
Cosmos 1833 Rocket 2.8 20:39:58 10° NNW 20:45:32 59° ENE 20:50:10 15° SE
Lacrosse 5 3.3 20:41:29 10° WSW 20:46:13 38° NW 20:50:57 10° NNE
Cosmos 2100 Rocket 4.2 20:42:34 10° SSE 20:48:34 48° E 20:54:38 10° NNE
Spot 2 Rocket 3.6 20:45:36 10° S 20:50:41 78° WSW 20:55:51 10° NNW
Cosmos 2278 Rocket 3.5 20:47:46 10° SW 20:53:10 44° WNW 20:58:36 10° NNE
Cosmos 1867 3.6 20:48:48 10° SSW 20:54:15 89° WNW 20:59:46 10° NNE
Cosmos 1470 2.9 20:50:59 10° SSE 20:54:49 48° E 20:58:40 10° NNE
Cosmos 1733 3.3 20:54:47 10° S 20:58:31 51° E 21:02:18 10° NNE
BREEZE-M DEB (TANK) 3.2 20:55:46 10° SW 20:58:58 55° SE 21:08:51 10° ENE
ATLAS 5 CENTAUR R/B 1.7 20:55:19 10° SSW 20:59:56 68° ESE 21:04:57 10° NE
Cosmos 1743 Rocket 4.2 20:56:31 10° N 21:00:37 35° ENE 21:01:43 30° ESE
Cosmos 1340 Rocket 2.9 21:02:03 10° N 21:06:00 52° ENE 21:07:16 36° SE
Envisat 3.0 21:05:45 23° SE 21:08:50 59° ENE 21:13:50 10° N
Cosmos 2297 4.0 21:04:27 10° SSW 21:10:08 70° WNW 21:15:53 10° NNE
SJ-11-01 4.4 21:07:56 29° SE 21:10:08 54° ENE 21:14:45 10° N
H-2A R/B 4.4 21:07:02 10° SSW 21:10:37 34° W 21:14:14 10° NNW
Cosmos 1802 Rocket 4.0 21:05:05 10° SSE 21:11:02 56° E 21:17:02 10° NNE
Cosmos 1184 Rocket 4.0 21:12:49 10° N 21:15:03 30° NE 21:15:03 30° NE
Cosmos 1125 Rocket 4.4 21:14:21 10° SW 21:19:22 49° WNW 21:24:27 10° N
H-2A R/B 4.1 21:21:37 13° NE 21:21:37 13° NE 21:23:30 10° NNE
Cosmos 1408 Rocket 4.0 21:16:45 10° NNW 21:21:11 64° W 21:25:11 12° S
Geosat 4.2 21:16:59 10° NNE 21:22:00 72° WNW 21:27:00 10° SW
Cosmos 2082 Rocket 2.6 21:17:57 10° NNW 21:23:35 62° WSW 21:27:52 17° S
ERS-1 Rocket 3.3 21:23:18 41° E 21:24:05 44° ENE 21:28:51 10° N
SeaSat 1 4.3 21:20:35 10° SSW 21:24:46 28° WSW 21:29:00 10° NW
CZ-3 Stage 3 3.8 20:49:17 10° W 21:25:17 52° SSW 21:29:16 30° SE
Cosmos 2061 Rocket 4.0 21:20:01 10° S 21:26:23 81° E 21:32:51 10° N
Meteor 1-11 4.5 21:23:04 10° N 21:28:25 45° ENE 21:29:11 43° E
SL-14 R/B 4.0 21:27:37 10° N 21:30:24 38° NE 21:30:24 38° NE
Timation 2 Rocket 4.1 21:25:52 10° NNW 21:32:07 69° WSW 21:35:50 24° S
ARGOS 4.3 21:32:39 27° ENE 21:32:39 27° ENE 21:36:40 10° N
Meteor 1-16 Rocket 4.3 21:29:39 22° S 21:33:28 62° E 21:39:19 10° NNE
Cosmos 2151 3.9 21:29:40 10° N 21:32:36 33° NE 21:32:36 33° NE
Cosmos 1842 Rocket 3.4 21:34:36 65° E 21:34:36 65° E 21:38:53 10° NNE
Cosmos 1328 4.0 21:32:24 10° N 21:35:46 56° NNE 21:35:46 56° NNE
TIMED 4.4 21:32:15 10° SSW 21:36:37 87° ESE 21:41:01 10° NNE
Cosmos 1271 Rocket 3.7 21:33:20 10° SSW 21:37:13 48° WNW 21:41:08 10° N
Cosmos 1459 Rocket 4.1 21:30:59 10° SSW 21:37:14 77° W 21:43:26 10° N
GPS 2-05 Rocket1 4.5 21:34:09 10° WSW 21:36:15 27° SW 21:36:15 27° SW
Helios 1B rocket 3.5 21:34:12 10° N 21:38:09 45° WNW 21:42:04 10° SW
BREEZE-M DEB (TANK) 4.1 21:40:13 10° NW 21:41:29 24° NNW 21:41:29 24° NNW
Cosmos 2173 Rocket 4.2 21:38:09 10° SSW 21:44:17 69° W 21:50:33 10° N
Cosmos 1939 Rocket 3.2 21:44:15 57° SSW 21:44:50 67° WSW 21:49:00 10° NNW
YAOGAN 6 3.8 21:47:36 36° N 21:47:36 36° N 21:49:57 10° N
Cosmos 1864 Rocket 4.4 21:48:07 47° SSE 21:49:49 65° E 21:56:04 10° NNE
Lacrosse 5 rocket 2.3 21:55:26 10° NW 21:58:14 40° W 21:58:14 40° W
Cosmos 2251 Rocket 3.4 21:55:48 10° NNW 22:01:08 86° WSW 22:01:24 81° S
ISS -1.3 22:00:40 10° W 22:02:04 21° W 22:02:04 21° W
CZ-3B DEB 4.1 22:06:17 10° WNW 22:11:44 21° NNW 22:14:42 12° NNE
Cosmos 2369 Rocket 4.1 22:18:38 18° NNE 22:18:38 18° NNE 22:19:57 10° NNE
USA 215 3.2 22:11:42 10° NE 22:18:15 80° NW 22:24:45 10° SW
MetOp-B 4.4 22:23:52 66° NNW 22:23:52 66° NNW 22:28:28 10° NNW
Cosmos 1725 Rocket 4.2 22:23:25 46° SW 22:25:11 67° W 22:31:23 10° N
SPOT 5 3.7 22:33:35 54° NNW 22:33:35 54° NNW 22:37:41 10° NNW
Terra 4.1 22:47:55 17° N 22:47:55 17° N 22:49:05 10° N
ATLAS 5 CENTAUR R/B 4.3 22:41:34 10° W 22:45:10 20° NW 22:49:01 10° N
USA 267 3.6 22:50:51 55° NNE 22:50:51 55° NNE 22:56:40 10° NW
H-2A R/B 3.6 23:02:14 32° NNW 23:02:14 32° NNW 23:05:01 10° NNW
